星链-31905 (STARLINK-31905 )

导读

STARLINK-31905是美国SpaceX星链星座的成员卫星,于2024年5月28日发射入轨,承担低轨全球互联网覆盖服务任务,可向全球偏远地区、高流量区域提供高速宽带连接,支撑全球海事、航空移动网络及民用互联网接入,进一步完善星链星座的服务覆盖能力,推动低轨卫星通信网络部署。

Basic Information
目录编号:
59896
目录名称:
STARLINK-31905
国际标识:
2024-100M
轨道中心:
EARTH
卫星名称:
星链-31905
卫星全名:
星链-31905 (STARLINK-31905 )
卫星状态:
在轨 (已飞行837 天)
发射日期:
2024-05-28 UTC
国别 :
美国 (US)
星等 :
--
This satellite is enrolled in the Space Conjunction Data Service (SCDS) and the current flight risk assessment level is: No High Risk
Orbit Information
数据来源 国际轨道数据 AOE轨道数据
星历时间 2026-09-11T10:42:01+0800
1天前
查看轨道信息
2026-09-10T23:00:00+0800
1天前
查看轨道信息
半长轴 6861.228km 6861.22km
偏心率 0.0000609 0.0001432
轨道倾角 43.003° 43.003°
近地点辐角 318.763° 324.235°
升交点赤经 154.878° 157.637°
平近点角 41.318° 231.730°
近地点 482.673km 482.1km
远地点 483.509km 484.066km
周期 94.268分钟 94.267分钟
每日圈数 15.275661 15.275688
Detailed Information
固有亮度:
5
最大亮度:
1.5
卫星平台:
Starlink v2.0 mini
覆盖范围:
全球
运营商:
太空探索技术公司
运营商所在国:
美国
制造商(研发单位):
太空探索技术公司
制造商所在国:
美国
使用方式:
暂无
Satellite Introduction
星链(Starlink)计划是由太空探索技术公司(SpaceX)提出的一个巨型低轨卫星互联网星座项目,计划在2019年至2024年间在太空搭建由约1.2万颗卫星组成的“星链”网络,其中1584颗将部署在地球上空550千米处的近地轨道,并从2020年开始工作。该卫星仍在工作。
2D Orbit Map
3D Orbit Map
Orbit Altitude Analysis Chart
Orbit Inclination Analysis Chart
Orbit Comprehensive Analysis Chart
View Comprehensive Chart
Conjunction Data List
Event ID Objects TCA Miss Dist (km) Collision Risk Probability Collision Risk Index (CRI) Action
CDM_260914-063505-989606-252821
2026-09-14T
06:35:25+0000
0.334 km
远距离
3.231655E-4 高风险 0.85
CDM_260914-032205-989606-438421
2026-09-14T
03:22:29+0000
0.465 km
远距离
1.296453E-4 高风险 0.77
CDM_260913-153605-989606-438421
2026-09-13T
15:36:20+0000
0.528 km
远距离
9.400067E-5 中风险 0.74
CDM_260913-154005-989606-252821
2026-09-13T
15:40:58+0000
0.837 km
远距离
3.153967E-5 中风险 0.65
CDM_260912-084705-989606-801221
2026-09-12T
08:47:01+0000
0.875 km
远距离
2.329822E-5 中风险 0.62
CDM_260909-234305-989606-438421
2026-09-09T
23:43:34+0000
1.243 km
极远距离
6.030957E-6 低风险 0.51
CDM_260913-140205-989606-438421
2026-09-13T
14:02:10+0000
1.270 km
极远距离
5.613894E-6 低风险 0.5
CDM_260912-185905-989606-801222
2026-09-12T
18:59:01+0000
1.387 km
极远距离
4.821511E-6 低风险 0.49
CDM_260913-140605-989606-252821
2026-09-13T
14:06:49+0000
1.482 km
极远距离
4.525128E-6 低风险 0.48
CDM_260912-071205-989606-801222
2026-09-12T
07:12:52+0000
1.498 km
极远距离
3.760563E-6 低风险 0.47
Miss Distance Evolution Trend with All Objects
Collision Probability Evolution Trend with All Objects